Regional Weather Roundup
Issued by NWS

Home | Current Version | Previous Version | Graphics & Text | Print | Product List | Glossary On
Versions: 1 2 3 4 5 6 7 8 9 10 11 12 13 14 15 16 17 18 19 20 21 22 23 24 25 26 27 28 29 30 31 32 33 34 35 36 37 38 39 40 41 42 43 44 45 46 47 48 49 50
000
ASUS45 KABQ 301801
RWRNM
NEW MEXICO REGIONAL WEATHER ROUNDUP
NATIONAL WEATHER SERVICE ALBUQUERQUE NM
1200 PM MDT SUN AUG 30 2015

NOTE: "FAIR" MEANS FEW OR NO CLOUDS BELOW 12,000 FEET AGL WITH NO
       SIGNIFICANT WEATHER OR OBSTRUCTIONS TO VISION.

      THIS PRODUCT IS RELEASED AS TWO VERSIONS.  ONE VERSION NEAR
      THE TOP OF THE HOUR CONTAINING PRELIMINARY DATA FROM ALBUQUERQUE
      AND OTHER STATIONS.  A FINAL VERSION WITH ADDITIONAL DATA IS
      ISSUED ABOUT 10 MINUTES AFTER THE HOUR.

NMZ501-503-504-510>518-301900-
NORTHWEST PLATEAU/NORTHCENTRAL MOUNTAINS

CITY           SKY/WX    TMP DP  RH WIND       PRES   REMARKS
FARMINGTON     SUNNY     83  47  28 SE7       30.21F
6HR MIN TEMP:  61; 6HR MAX TEMP:  83;

SANTA FE       SUNNY     79  48  33 W8        30.29F
6HR MIN TEMP:  53; 6HR MAX TEMP:  79;

TAOS           SUNNY     77  45  31 W9        30.36F
ANGEL FIRE     FAIR      71  46  39 S3        30.42F

$$
NMZ402-403-502-505>509-301900-
WESTCENTRAL MOUNTAINS/SOUTHWEST MOUNTAINS

CITY           SKY/WX    TMP DP  RH WIND       PRES   REMARKS
GALLUP         MOSUNNY   82  48  30 MISG      30.29F
6HR MIN TEMP:  52; 6HR MAX TEMP:  82;

SILVER CITY      N/A     81  54  39 S9        30.28S

$$
NMZ407-409-411-412-301900-
SOUTHERN DESERTS

CITY           SKY/WX    TMP DP  RH WIND       PRES   REMARKS
DEMING         SUNNY     86  55  34 W7        30.17F
6HR MIN TEMP:  63; 6HR MAX TEMP:  86;

ALAMOGORDO     SUNNY     82  54  36 W5        30.18F
T OR C         SUNNY     83  52  34 VRB7      30.20F
6HR MIN TEMP:  65; 6HR MAX TEMP:  84;


$$
NMZ519>523-301900-
CENTRAL VALLEYS/CENTRAL HIGHLANDS

CITY           SKY/WX    TMP DP  RH WIND       PRES   REMARKS
ALBUQUERQUE    MOSUNNY   81  50  33 VRB3      30.24F
6HR MIN TEMP:  64; 6HR MAX TEMP:  81;

DOUBLE EAGLE   MOSUNNY   81  52  36 VRB6      30.28F
MORIARTY ARPT  FAIR      80  48  32 CALM      30.29F
6HR MIN TEMP:  46; 6HR MAX TEMP:  80;

CLINES CORNERS SUNNY     76  50  40 N8        30.33F
6HR MIN TEMP:  54; 6HR MAX TEMP:  76;

BELEN          FAIR      84  45  25 S6        30.22F
6HR MIN TEMP:  59; 6HR MAX TEMP:  84;

SOCORRO        NOT AVBL

$$
NMZ524>526-539-540-301900-
SOUTHCENTRAL MOUNTAINS

CITY           SKY/WX    TMP DP  RH WIND       PRES   REMARKS
RUIDOSO        NOT AVBL

$$
NMZ527>531-301900-
NORTHEAST HIGHLANDS/NORTHEAST PLAINS

CITY           SKY/WX    TMP DP  RH WIND       PRES   REMARKS
LAS VEGAS      MOSUNNY   80  44  27 S8        30.30F
6HR MIN TEMP:  48; 6HR MAX TEMP:  81;

RATON          SUNNY     82  45  27 SE7       30.23F
6HR MIN TEMP:  48; 6HR MAX TEMP:  82;

CLAYTON        SUNNY     84  57  39 S16       30.17F
6HR MIN TEMP:  55; 6HR MAX TEMP:  84;


$$
NMZ532>537-301900-
EASTCENTRAL PLAINS

CITY           SKY/WX    TMP DP  RH WIND       PRES   REMARKS
TUCUMCARI      SUNNY     87  54  32 S12       30.14F
6HR MIN TEMP:  59; 6HR MAX TEMP:  87;

CANNON AFB     SUNNY     81  56  41 VRB6      30.18
6HR MIN TEMP:  60; 6HR MAX TEMP:  81;

CLOVIS AIRPORT SUNNY     81  54  39 CALM      30.20F

$$
NMZ028-029-538-301900-
SOUTHEAST PLAINS

CITY           SKY/WX    TMP DP  RH WIND       PRES   REMARKS
ROSWELL        SUNNY     83  54  36 VRB6      30.16F
6HR MIN TEMP:  60; 6HR MAX TEMP:  85;

ARTESIA        SUNNY     82  55  39 VRB3G12   30.16F
CARLSBAD       NOT AVBL


$$



USA.gov is the U.S. government's official web portal to all federal, state and local government web resources and services.